Wolf Creek Pass, CO

5:43 PM MST on February 19, 2018 (GMT -0700)
Wolf Creek Pass

Weather History for KCPW - April, 2013

Change the Weather History Date:

Tuesday, April 9, 2013

  Actual Average (KALS) Record (KALS)
Temperature  
Mean Temperature 20 °F -  
Max Temperature 23 °F 58 °F 72 °F (1977)
Min Temperature 15 °F 21 °F 7 °F (1938)
Degree Days  
Heating Degree Days 45    
Moisture  
Dew Point 18 °F    
Average Humidity 95    
Maximum Humidity 100    
Minimum Humidity 86    
Precipitation  
Precipitation 1.02 in - - ()
Sea Level Pressure  
Sea Level Pressure 29.63 in    
Wind  
Wind Speed 9 mph (SSW)    
Max Wind Speed 25 mph    
Max Gust Speed 53 mph    
Visibility 1 miles    
Events Fog , Snow , Thunderstorm    
Averages and records for this station are not official NWS values.
T = Trace of Precipitation, MM = Missing Value Source: NWS Daily Summary

Daily Weather History Graph

Daily Weather History Graph

Search for Another Location

Airport or City:

Trip Planner

Search our weather history database for the weather conditions in past years. The results will help you decide how hot, cold, wet, or windy it might be!

Date:

Astronomy

Apr. 09, 2013 Rise Set
Actual Time 6:40 AM MDT 7:37 PM MDT
Civil Twilight 6:13 AM MDT 8:04 PM MDT
Nautical Twilight 5:42 AM MDT 8:35 PM MDT
Astronomical Twilight 5:09 AM MDT 9:08 PM MDT
Moon 6:04 AM MDT (4/9) 7:15 PM MDT (4/9)
Length of Visible Light 13h 50m
Length of Day
12h 56m
Waning Crescent, 0% of the Moon is Illuminated
Apr 9
Waning Crescent
Apr 10
New
Apr 18
First Quarter
Apr 25
Full
May 2
Last Quarter

Hourly Weather History & Observations

Time (MDT) Temp. Windchill Dew Point Humidity Pressure Visibility Wind Dir Wind Speed Gust Speed Precip Events Conditions
12:17 AM 19.4 °F - 19.4 °F 100% 29.69 in 0.5 mi North - - 0.03 in Snow Snow
12:37 AM 19.4 °F - 19.4 °F 100% 29.69 in 0.5 mi North - - 0.06 in Snow Light Snow
12:57 AM 19.4 °F - 19.4 °F 100% 29.69 in 0.8 mi North - - 0.08 in Snow Snow
1:17 AM 19.4 °F 11.5 °F 19.4 °F 100% 29.68 in 0.5 mi SSW 5.8 mph - 0.02 in Fog Light Freezing Fog
1:37 AM 21.2 °F 10.1 °F 19.4 °F 93% 29.67 in 0.5 mi SW 10.4 mph - 0.04 in Snow Light Snow
1:57 AM 19.4 °F 11.5 °F 19.4 °F 100% 29.65 in 1.0 mi SW 5.8 mph 16.1 mph 0.05 in Snow Light Snow
2:17 AM 19.4 °F 8.6 °F 19.4 °F 100% 29.66 in 1.2 mi SW 9.2 mph - N/A Snow Light Snow
2:37 AM 19.4 °F 7.9 °F 19.4 °F 100% 29.63 in 1.0 mi WSW 10.4 mph 18.4 mph 0.01 in Snow Snow
2:57 AM 19.4 °F 12.8 °F 19.4 °F 100% 29.63 in 3.0 mi SW 4.6 mph - 0.01 in Snow Light Snow
3:17 AM 19.4 °F - 19.4 °F 100% 29.64 in 0.8 mi Calm Calm - 0.01 in Snow Snow
3:37 AM 19.4 °F 12.8 °F 17.6 °F 93% 29.62 in 1.8 mi ENE 4.6 mph - 0.02 in Snow Light Snow
3:57 AM 19.4 °F 12.8 °F 17.6 °F 93% 29.60 in 0.8 mi ENE 4.6 mph - 0.02 in Snow Light Snow
4:17 AM 19.4 °F 9.5 °F 17.6 °F 93% 29.59 in 0.2 mi ENE 8.1 mph - N/A Fog Light Freezing Fog
4:37 AM 19.4 °F 10.4 °F 17.6 °F 93% 29.57 in 1.2 mi East 6.9 mph - N/A Snow Light Snow
4:57 AM 19.4 °F 10.4 °F 19.4 °F 100% 29.56 in 1.8 mi ENE 6.9 mph - N/A Snow Light Snow
5:17 AM 19.4 °F 14.3 °F 19.4 °F 100% 29.56 in 7.0 mi East 3.5 mph - N/A   Overcast
5:37 AM 21.2 °F 12.6 °F 19.4 °F 93% 29.54 in 3.0 mi SE 6.9 mph - N/A Snow Light Snow
5:57 AM 21.2 °F 10.1 °F 19.4 °F 93% 29.54 in 1.2 mi South 10.4 mph 16.1 mph 0.01 in Snow Light Snow
6:17 AM 21.2 °F 16.4 °F 21.2 °F 100% 29.54 in 1.0 mi SSW 3.5 mph - N/A Snow Snow
6:37 AM 21.2 °F 9.5 °F 19.4 °F 93% 29.54 in 0.5 mi South 11.5 mph 19.6 mph 0.02 in Snow Heavy Snow
6:57 AM 21.2 °F 9.5 °F 19.4 °F 93% 29.54 in 0.5 mi South 11.5 mph 19.6 mph 0.03 in Snow Heavy Snow
7:17 AM 21.2 °F - 19.4 °F 93% 29.54 in 0.5 mi North - - 0.01 in Snow Snow
7:37 AM 21.2 °F 9.5 °F 19.4 °F 93% 29.56 in 0.2 mi South 11.5 mph - 0.04 in Snow Heavy Snow
7:57 AM 19.4 °F - 17.6 °F 93% 29.56 in 0.2 mi North - - 0.10 in Snow Heavy Snow
8:12 AM 19.4 °F - 17.6 °F 93% 29.55 in 0.8 mi North - - 0.03 in Snow Snow
8:37 AM 19.4 °F - 17.6 °F 93% 29.55 in 0.5 mi North - - 0.07 in Snow Light Snow
8:57 AM 19.4 °F - 17.6 °F 93% 29.55 in 0.8 mi North - - 0.08 in Snow Light Snow
9:17 AM 19.4 °F - 19.4 °F 100% 29.55 in 0.2 mi North - - 0.01 in Snow Light Snow
9:37 AM 19.4 °F - 19.4 °F 100% 29.56 in 0.2 mi North - - 0.02 in Snow Snow
9:57 AM 19.4 °F - 19.4 °F 100% 29.56 in 0.2 mi North - - 0.03 in Snow Snow
10:17 AM 19.4 °F - 19.4 °F 100% 29.56 in 0.2 mi North - - 0.01 in Snow Light Snow
10:37 AM 21.2 °F - 19.4 °F 93% 29.56 in 0.2 mi North - - 0.01 in Snow Light Snow
10:57 AM 21.2 °F - 19.4 °F 93% 29.57 in 0.2 mi North - - 0.03 in Snow Light Snow
11:17 AM 21.2 °F - 19.4 °F 93% 29.58 in 0.5 mi North - - N/A Fog , Thunderstorm Light Freezing Fog
11:37 AM 21.2 °F 7.8 °F 19.4 °F 93% 29.59 in 0.2 mi SSW 15.0 mph 18.4 mph 0.01 in Snow Snow
11:57 AM 23.0 °F 13.1 °F 21.2 °F 93% 29.59 in 2.5 mi SW 9.2 mph 16.1 mph 0.02 in Snow Light Snow
12:17 PM 21.2 °F - 19.4 °F 93% 29.58 in 2.0 mi North - - N/A Snow Light Snow
12:37 PM 21.2 °F 11.7 °F 21.2 °F 100% 29.57 in 0.5 mi SSW 8.1 mph - N/A Snow Light Snow
12:57 PM 17.6 °F 4.3 °F 15.8 °F 93% 29.59 in 0.2 mi SSW 12.7 mph - 0.01 in Snow , Thunderstorm Heavy Thunderstorms and Snow
1:17 PM 17.6 °F 8.2 °F 15.8 °F 93% 29.59 in 0.2 mi SW 6.9 mph - 0.04 in Snow Snow
1:37 PM 17.6 °F 4.3 °F 14.0 °F 86% 29.60 in 0.2 mi SSW 12.7 mph 18.4 mph 0.06 in Snow Snow
1:58 PM 17.6 °F 9.3 °F 15.8 °F 93% 29.61 in 1.2 mi SW 5.8 mph - 0.09 in Snow Light Snow
2:17 PM 19.4 °F 12.8 °F 17.6 °F 93% 29.61 in 0.8 mi SSW 4.6 mph - 0.01 in Snow Light Snow
2:37 PM 19.4 °F 10.4 °F 17.6 °F 93% 29.61 in 0.5 mi SW 6.9 mph - 0.03 in Snow Snow
2:57 PM 19.4 °F 7.9 °F 17.6 °F 93% 29.62 in 10.0 mi SW 10.4 mph 19.6 mph 0.03 in   Overcast
3:17 PM 21.2 °F 9.5 °F 19.4 °F 93% 29.62 in 10.0 mi SW 11.5 mph - N/A   Overcast
3:37 PM 19.4 °F 11.5 °F 19.4 °F 100% 29.63 in 1.0 mi SE 5.8 mph - N/A Snow Light Snow
3:57 PM 19.4 °F 11.5 °F 19.4 °F 100% 29.64 in 0.8 mi SSW 5.8 mph - N/A Snow Light Snow
4:17 PM 19.4 °F 12.8 °F 19.4 °F 100% 29.64 in 0.2 mi SSW 4.6 mph - 0.02 in Snow Light Snow
4:37 PM 19.4 °F 11.5 °F 17.6 °F 93% 29.64 in 0.5 mi South 5.8 mph - 0.03 in Snow Snow
4:57 PM 19.4 °F 7.9 °F 19.4 °F 100% 29.65 in 0.2 mi SSW 10.4 mph 19.6 mph 0.05 in Snow Light Snow
5:17 PM 19.4 °F 5.5 °F 19.4 °F 100% 29.66 in 0.2 mi SSW 15.0 mph 26.5 mph 0.01 in Snow Snow
5:37 PM 19.4 °F 4.1 °F 17.6 °F 93% 29.66 in 0.2 mi SSW 18.4 mph 26.5 mph 0.02 in Snow Heavy Snow
5:57 PM 19.4 °F 3.6 °F 17.6 °F 93% 29.67 in 0.2 mi SSW 19.6 mph 32.2 mph 0.03 in Snow Heavy Snow
6:17 PM 17.6 °F 1.3 °F 17.6 °F 100% 29.69 in 0.2 mi SSW 19.6 mph 27.6 mph 0.03 in Snow Snow
6:37 PM 17.6 °F 2.7 °F 17.6 °F 100% 29.70 in 0.2 mi SSW 16.1 mph - 0.05 in Snow Snow
6:57 PM 17.6 °F -0.3 °F 15.8 °F 93% 29.70 in 0.2 mi SW 24.2 mph 34.5 mph 0.06 in Snow Heavy Snow
7:17 PM 17.6 °F 0.9 °F 15.8 °F 93% 29.71 in 0.2 mi SW 20.7 mph 33.4 mph 0.02 in Snow Heavy Snow
7:37 PM 17.6 °F 0.9 °F 15.8 °F 93% 29.71 in 0.2 mi SW 20.7 mph 29.9 mph 0.03 in Snow Heavy Snow
7:57 PM 17.6 °F 3.7 °F 15.8 °F 93% 29.72 in 0.2 mi SSW 13.8 mph 28.8 mph 0.04 in Snow Heavy Snow
8:17 PM 17.6 °F -0.6 °F 15.8 °F 93% 29.72 in 0.2 mi SW 25.3 mph 52.9 mph 0.02 in Snow Heavy Snow
8:37 PM 17.6 °F - 15.8 °F 93% 29.73 in 0.2 mi North - - 0.03 in Snow Heavy Snow
9:17 PM 17.6 °F - 15.8 °F 93% 29.76 in 0.5 mi North - - 0.01 in Snow Snow
9:37 PM 17.6 °F - 15.8 °F 93% 29.77 in 0.5 mi North - - 0.05 in Snow Snow
9:57 PM 17.6 °F - 15.8 °F 93% 29.78 in 0.5 mi North - - 0.08 in Snow Snow
10:17 PM 17.6 °F - 15.8 °F 93% 29.79 in 0.5 mi North - - 0.03 in Snow Snow
10:37 PM 17.6 °F - 15.8 °F 93% 29.79 in 0.5 mi North - - 0.08 in Snow Light Snow
10:57 PM 17.6 °F - 14.0 °F 86% 29.80 in 0.5 mi North - - 0.10 in Snow Snow
11:17 PM 17.6 °F - 14.0 °F 86% 29.81 in 0.5 mi North - - 0.03 in Snow Snow
11:57 PM 15.8 °F 0.9 °F 14.0 °F 93% 29.81 in 0.5 mi SSW 15.0 mph 38.0 mph 0.04 in Snow Light Snow